Regional Weather Roundup
Issued by NWS

Home | Current Version | Previous Version | Graphics & Text | Print | Product List | Glossary On
Versions: 1 2 3 4 5 6 7 8 9 10 11 12 13 14 15 16 17 18 19 20 21 22 23 24 25 26 27 28 29 30 31 32 33 34 35 36 37 38 39 40 41 42 43 44 45 46 47 48 49 50
000
ASUS43 KMPX 281210
RWRMN
WEATHER ROUNDUP FOR MINNESOTA
NATIONAL WEATHER SERVICE TWIN CITIES/CHANHASSEN MN
600 AM CST WED JAN 28 2015


NOTE: "FAIR" INDICATES FEW OR NO CLOUDS BELOW 12,000 FEET WITH NO
SIGNIFICANT WEATHER AND/OR OBSTRUCTIONS TO VISIBILITY. N/A MEANS
CURRENT SKY AND/OR WEATHER CONDITIONS ARE NOT AVAILABLE.

MNZ060>063-068>070-281300-
   Twin Cities Metro

CITY           SKY/WX    TMP DP  RH WIND       PRES   REMARKS
TWIN CITIES    CLOUDY    29  25  85 SE15G24   30.03S WCI  18
6HR MIN TEMP:  29; 6HR MAX TEMP:  30;

ST PAUL        CLOUDY    29  25  85 SE17      30.04F WCI  17
CRYSTAL        CLOUDY    30  26  85 SE15      30.01S WCI  19
BLAINE         CLOUDY    30  28  93 SE9       30.02R WCI  22
LAKEVILLE      CLOUDY    27  27 100 SE9       30.02S WCI  17
EDEN PRAIRIE   CLOUDY    30  26  85 SE13      30.00F WCI  20
6HR MIN TEMP:  30; 6HR MAX TEMP:  31;

SOUTH ST PAUL  CLOUDY    29  26  88 SE8G16    30.04S WCI  21
LAKE ELMO      CLOUDY    28  27  93 SE12      30.04F WCI  18
$$
MNZ001>005-007-008-013>017-022>024-027-028-281300-
   Northwest Minnesota

CITY           SKY/WX    TMP DP  RH WIND       PRES   REMARKS
BEMIDJI        CLOUDY    30  28  94 SE7       29.87S WCI  23
HALLOCK        CLOUDY    32  30  93 SE9       29.82F FOG     WCI  24
ROSEAU         CLOUDY    30  27  86 SE7       29.85F FOG     WCI  23
WARROAD        CLOUDY    30  27  86 SE7       29.87F FOG     WCI  23
THIEF RVR FALL CLOUDY    32  30  93 SE10      29.82F WCI  24
CROOKSTON      CLOUDY    34  32  93 S13       29.82F WCI  25
FOSSTON        CLOUDY    30  28  93 SE8       29.84S WCI  23
DETROIT LAKES  CLOUDY    32  32 100 S14       29.84S WCI  22
MOORHEAD       CLOUDY    34  34 100 S18G24    29.83S WCI  23
PARK RAPIDS    CLOUDY    31  29  92 SE12      29.87F FOG     WCI  22
MAHNOMEN       CLOUDY    32  30  92 SE9       29.82F WCI  24
$$
MNZ006-009>011-018-025>026-281300-
   North Central Minnesota

CITY           SKY/WX    TMP DP  RH WIND       PRES   REMARKS
BAUDETTE       CLOUDY    28  24  85 SE6       29.88S WCI  22
FLAG ISLAND    CLOUDY    28  25  86 SE7       29.89S WCI  21
INTL FALLS     CLOUDY    26  23  88 SE8       29.92F WCI  18
6HR MIN TEMP:  26; 6HR MAX TEMP:  28;

WASKISH        CLOUDY    30  28  93 SE3       29.89S FOG
BIG FORK       CLOUDY    28  25  86 SE7       29.92F WCI  21
LONGVILLE      CLOUDY    28  27  93 SE8       29.91S FOG     WCI  20
GRAND RAPIDS   CLOUDY    27  25  93 SE12      29.93F WCI  16
CRANE LAKE     CLOUDY    25  23  93 SE3       29.98F
ORR            CLOUDY    25  21  86 S7        29.93F WCI  17
COOK           CLOUDY    25  21  86 S6        29.96F WCI  18
WALKER         CLOUDY    29  28  95 SE9       29.89F FOG     WCI  21
$$
MNZ012-019>021-037-281300-
   Northeast Minnesota

CITY           SKY/WX    TMP DP  RH WIND       PRES   REMARKS
DULUTH         CLOUDY    23  19  85 SE10      29.99F WCI  12
6HR MIN TEMP:  23; 6HR MAX TEMP:  27;

ELY            CLOUDY    25  21  86 S7        29.98F WCI  17
HIBBING        CLOUDY    26  22  84 S7        29.96F WCI  18
EVELETH        CLOUDY    25  21  86 SE12      29.98F WCI  14
DULUTH HARBOR  CLOUDY    27  21  80 CALM      30.07F
TWO HARBORS    CLOUDY    27  21  80 S6        30.02F WCI  20
SILVER BAY     CLOUDY    28  23  80 S6        30.03S WCI  22
GRAND MARAIS     N/A     31  25  78 S8        30.07F WCI  23
G MARAIS ARPRT   N/A     25  19  80 S5        30.01F FOG     WCI  19
$$
MNZ029>031-032-039>041-046>048-054>057-064-281300-
   West Central Minnesota

CITY           SKY/WX    TMP DP  RH WIND       PRES   REMARKS
FERGUS FALLS   CLOUDY    32  30  93 S17       29.87S WCI  21
WHEATON        CLOUDY    28  28 100 SE16      29.84F WCI  17
MORRIS         CLOUDY    32  30  93 SE22      29.84F FOG     WCI  19
ALEXANDRIA     CLOUDY    32  29  88 S15       29.87F WCI  22
ELBOW LAKE     CLOUDY    32  31  94 SE20G26   29.84S WCI  20
WADENA         CLOUDY    30  28  93 S12G18      N/A  FOG     WCI  21
GLENWOOD       CLOUDY    30  30 100 SE14      29.88F FOG     WCI  20
APPLETON       CLOUDY    34  30  86 SE14G20   29.85F WCI  24
BENSON         CLOUDY    32  30  93 S14G20    29.87F WCI  22
ORTONVILLE     MOCLDY    30  28  93 SE14G22   29.82F FOG     WCI  20
MADISON        MOCLDY    36  34  93 SE16      29.84F
WILLMAR        CLOUDY    34  30  86 SE17G25   29.91F FOG     WCI  23
$$
MNZ033>034-036-042>043-049>051-058-059-281300-
   Central Minnesota

CITY           SKY/WX    TMP DP  RH WIND       PRES   REMARKS
ST CLOUD       CLOUDY    30  28  92 SE16      29.95F WCI  19
6HR MIN TEMP:  30; 6HR MAX TEMP:  31;

SAUK CENTRE    CLOUDY    31  30  96 SE16      29.90F FOG     WCI  20
PAYNESVILLE    CLOUDY    29  28  99 E13G20    29.92F FOG     WCI  18
AITKIN         CLOUDY    30  25  80 SE8G16    29.94S HAZE    WCI  23
PINE RIVER     CLOUDY    30  28  93 SE12      29.95S FOG     WCI  21
BRAINERD       CLOUDY    29  27  92 S10G21    29.93F FOG     WCI  20
STAPLES        CLOUDY    28  28 100 SE9       29.89F FOG     WCI  20
LONG PRAIRIE   CLOUDY    30  30 100 SE14G22   29.90F FOG     WCI  20
LITTLE FALLS   CLOUDY    30  28  93 SE14G20   29.93F WCI  20
LITCHFIELD     CLOUDY    32  32 100 SE9G20    29.94F FOG     WCI  24
BUFFALO        CLOUDY    30  28  90 SE10      29.99F WCI  21
MAPLE LAKE     CLOUDY    32  30  94 SE8       29.98S WCI  24
$$
MNZ037-044-045-052-053-281300-
   East Central Minnesota

CITY           SKY/WX    TMP DP  RH WIND       PRES   REMARKS
PRINCETON      CLOUDY    30  28  93 SE13      29.99F FOG     WCI  20
MORA           CLOUDY    28  25  86 SE6       30.02F WCI  22
CAMBRIDGE      CLOUDY    30  23  74 SE6       29.99F WCI  24
RUSH CITY      CLOUDY    28  25  89 SE10      30.03S WCI  18
MOOSE LAKE     CLOUDY    27  23  86 S6        29.99S WCI  20
HINCKLEY       CLOUDY    28  27  93 SE7       30.01F WCI  21
CLOQUET        CLOUDY    25  21  86 SE6       30.00S WCI  18
MCGREGOR       CLOUDY    28  27  93 S12       29.97F WCI  18
$$
MNZ071>073-080-081-089-090-097-098-281300-
   Southwest Minnesota

CITY           SKY/WX    TMP DP  RH WIND       PRES   REMARKS
MONTEVIDEO     CLOUDY    32  32 100 S16G23    29.87F WCI  21
GRANITE FALLS  CLOUDY    32  30  92 SE20G25   29.89S WCI  20
CANBY          PTCLDY    32  31  96 SE9       29.83F WCI  24
MARSHALL       PTCLDY    30  27  86 S15       29.86F WCI  19
REDWOOD FALLS  CLOUDY    33  30  88 SE21      29.91F FOG     WCI  21
OLIVIA         CLOUDY    32  32 100 SE16      29.90F FOG     WCI  21
PIPESTONE      PTCLDY    34  30  86 S16G24    29.81F WCI  23
WINDOM         CLOUDY    30  30 100 SE16G25   29.90S FOG     WCI  19
WORTHINGTON    CLOUDY    30  27  86 S15G24    29.88F WCI  19
JACKSON        CLOUDY    32  30  93 SE16G22   29.92F FOG     WCI  21
TRACY          CLOUDY    32  31  95 S16G24    29.86F WCI  22
SLAYTON        PTCLDY    31  30  96 SE16G23   29.85F FOG     WCI  20
$$
MNZ065>067-074>077-082>085-091>093-281300-
   South Central Minnesota

CITY           SKY/WX    TMP DP  RH WIND       PRES   REMARKS
MANKATO        CLOUDY    30  27  86 SE18G24   29.97F WCI  18
NEW ULM        CLOUDY    30  30 100 S16G24    29.94F FOG     WCI  19
ST JAMES       CLOUDY    32  30  93 SE20      29.96F FOG     WCI  20
FAIRMONT       CLOUDY    30  27  86 S18G26    29.94F WCI  18
GLENCOE        CLOUDY    32  31  96 SE14      29.96F FOG     WCI  22
FARIBAULT      CLOUDY    28  27  93 SE13      30.01F FOG     WCI  18
OWATONNA       CLOUDY    28  27  93 SE14      30.01F FOG     WCI  17
WASECA         CLOUDY    30  28  93 SE13G22   30.01F FOG     WCI  20
ALBERT LEA     CLOUDY    28  28 100 SE14G20   30.00F FOG     WCI  17
$$
MNZ078>079-086>088-094>096-281300-
   Southeast Minnesota

CITY           SKY/WX    TMP DP  RH WIND       PRES   REMARKS
ROCHESTER      CLOUDY    24  22  91 S21       30.05F FOG     WCI   9
6HR MIN TEMP:  24; 6HR MAX TEMP:  27;

RED WING       CLOUDY    28  25  86 SE9       30.06F WCI  20
STANTON        CLOUDY    30  27  86 SE13G18   30.02F WCI  20
DODGE CENTER   CLOUDY    27  27 100 S15       30.03S FOG     WCI  15
WINONA         CLOUDY    28  23  80 SE8       30.13F FOG     WCI  20
AUSTIN         CLOUDY    27  25  93 S13G18    30.03F FOG     WCI  16
PRESTON        CLOUDY    23  22  96 S14       30.07S FOG     WCI  11
$$
ABBREVIATIONS USED IN REMARKS
   TC - TEMPERATURES IN CELSIUS
  WCI - WIND CHILL INDEX
   HX - HEAT INDEX
  VSB - VISIBILITY
$$


USA.gov is the U.S. government's official web portal to all federal, state and local government web resources and services.